Powrót do katalogu

STARLINK-33625

AktywnyŁącznośćVLEO
NORAD 63327·PAYLOAD·🇺🇸 United States

Wystrzelony Mar 18, 2025 z Cape Canaveral Space Force Station

Loading…

Następne Przeloty (najbliższe 24 godziny)

TLE

ŚwieżeSource: CelesTrak SupGP

Epoka: Sep 15, 2026, 03:03 UTC

1 63327C 25057W   26258.12756944 -.00009635  00000+0 -34888-3 0  2587
2 63327  43.0046  33.3987 0001538 267.9260 227.6767 15.27590939    10

Śledź STARLINK-33625 w czasie rzeczywistym z AllMySat

Download on the App Store